This is the latest recevied weather packets stored in our database for station/object N3EG. If no packets are shown the sender has not sent any weather packets the latest 10 day(s).
| Time | Temp. | Humidity | Pressure | Rain* | Wind** | Luminosity | Snow |
|---|---|---|---|---|---|---|---|
| 1777770303 | 25.56° C | 57% | 1011.6 hPa | 0 mm | - | - | - |
| 1777770002 | 25.56° C | 56% | 1011.5 hPa | 0 mm | - | - | - |
| 1777769703 | 26.11° C | 56% | 1011.6 hPa | 0 mm | - | - | - |
| 1777769403 | 26.11° C | 56% | 1011.7 hPa | 0 mm | - | - | - |
| 1777769102 | 26.11° C | 54% | 1011.8 hPa | 0 mm | - | - | - |
| 1777768803 | 26.11° C | 56% | 1011.7 hPa | 0 mm | - | - | - |
| 1777768503 | 26.11° C | 59% | 1011.8 hPa | 0 mm | - | - | - |
| 1777768202 | 26.11° C | 58% | 1011.8 hPa | 0 mm | - | - | - |
| 1777767903 | 26.11° C | 60% | 1011.7 hPa | 0 mm | - | - | - |
| 1777767603 | 26.11° C | 60% | 1011.7 hPa | 0 mm | - | - | - |
| 1777767302 | 26.11° C | 58% | 1011.8 hPa | 0 mm | - | - | - |
| 1777767003 | 26.11° C | 60% | 1011.8 hPa | 0 mm | - | - | - |
| 1777766703 | 26.11° C | 58% | 1011.9 hPa | 0 mm | - | - | - |
| 1777766402 | 25.56° C | 57% | 1011.9 hPa | 0 mm | - | - | - |
| 1777766103 | 26.11° C | 59% | 1011.9 hPa | 0 mm | - | - | - |
| 1777765803 | 25.56° C | 61% | 1012 hPa | 0 mm | - | - | - |
| 1777765502 | 25.56° C | 60% | 1012 hPa | 0 mm | - | - | - |
| 1777765203 | 25.56° C | 59% | 1012.1 hPa | 0 mm | - | - | - |
| 1777764903 | 25° C | 63% | 1012.1 hPa | 0 mm | - | - | - |
| 1777764602 | 25° C | 61% | 1012.2 hPa | 0 mm | - | - | - |
| 1777764303 | 25° C | 62% | 1012.3 hPa | 0 mm | - | - | - |
| 1777764002 | 25° C | 60% | 1012.3 hPa | 0 mm | - | - | - |
| 1777763703 | 24.44° C | 62% | 1012.3 hPa | 0 mm | - | - | - |
| 1777763403 | 24.44° C | 60% | 1012.5 hPa | 0 mm | - | - | - |
| 1777763102 | 24.44° C | 63% | 1012.5 hPa | 0 mm | - | - | - |
* Rain latest hour (hover to see other rain measurements)
** Current wind speed in m/s (hover to see current wind gust speed)